Regional Weather Roundup
Issued by NWS

Home | Current Version | Previous Version | Graphics & Text | Print | Product List | Glossary On
Versions: 1 2 3 4 5 6 7 8 9 10 11 12 13 14 15 16 17 18 19 20 21 22 23 24 25 26 27 28 29 30 31 32 33 34 35 36 37 38 39 40 41 42 43 44 45 46 47 48 49 50
000
ASUS43 KLMK 301610
RWRKY
KENTUCKY REGIONAL WEATHER ROUNDUP
NATIONAL WEATHER SERVICE LOUISVILLE KY
1200 PM EDT SUN AUG 30 2015

NOTE "FAIR" INDICATES FEW OR NO CLOUDS BELOW 12,000 FEET
WITH NO SIGNIFICANT WEATHER AND/OR OBSTRUCTIONS TO VISIBILITY.

KYZ001>023-026-027-061>063-070>075-301700-
WESTERN AND SOUTH CENTRAL KENTUCKY

CITY           SKY/WX    TMP DP  RH WIND       PRES   REMARKS
PADUCAH        CLOUDY    76  70  82 S5        30.09R
HENDERSON      PTSUNNY   79  68  69 SW6       30.09S
OWENSBORO      PTSUNNY   79  71  76 S12       30.12R
HOPKINSVILLE   PTSUNNY   82  68  64 SW7       30.12R
BOWLING GREEN  CLOUDY    81  65  58 SW10      30.14S
GLASGOW        PTSUNNY   80  66  61 SW6       30.15S
$$

KYZ024-025-028>034-038-045-046-053-301700-
NORTH CENTRAL KENTUCKY

CITY           SKY/WX    TMP DP  RH WIND       PRES   REMARKS
LOUISVILLE/SDF PTSUNNY   81  67  62 VRB6      30.11S
LOUISVILLE/LOU MOSUNNY   79  67  66 CALM      30.13R
FORT KNOX      CLOUDY    78  68  73 S5        30.12R
$$

KYZ035>037-039>044-047>052-055>060-089>105-301700-
NORTHEAST KENTUCKY

CITY           SKY/WX    TMP DP  RH WIND       PRES   REMARKS
LEXINGTON      MOSUNNY   80  67  64 SW9       30.16S
COVINGTON      PTSUNNY   78  70  76 S7        30.13S
FRANKFORT      SUNNY     81  66  60 SW12      30.13S
$$

KYZ054-064>069-076>088-106>120-301700-
SOUTHEAST KENTUCKY

CITY           SKY/WX    TMP DP  RH WIND       PRES   REMARKS
JACKSON        CLOUDY    75  64  68 S3        30.20S
LONDON         CLOUDY    80  61  52 S6        30.20R
SOMERSET       PTSUNNY   73  64  73 CALM      30.20S
MIDDLESBORO    CLOUDY    72  66  80 CALM      30.21S
MONTICELLO     CLOUDY    78  68  71 CALM      30.21R
$$




USA.gov is the U.S. government's official web portal to all federal, state and local government web resources and services.